Location: Unspecified
(0.0000°N, 0.0000°E)
Time: 22:55:53
(UTC+00:00)

deb Explorer IX - All Passes

Search period start: 19 November 2019 00:00
Search period end: 29 November 2019 00:00
Orbit: 546 x 1105 km, 38.8° (Epoch: 17 November)

Date Brightness Start Highest point End Pass type
(mag) Time Alt. Az. Time Alt. Az. Time Alt. Az.
19 Nov - 07:43:23 10° NNE 07:44:37 11° NE 07:45:49 10° NE daylight
19 Nov - 09:27:21 10° WNW 09:31:23 61° SW 09:35:33 10° SE daylight
19 Nov - 18:37:39 10° SSE 18:39:15 11° SE 18:40:52 10° SE visible
19 Nov - 20:20:01 10° SW 20:27:03 54° SE 20:34:08 10° ENE visible
19 Nov - 22:08:05 10° WSW 22:14:32 33° NW 22:20:47 10° NNE visible
20 Nov - 07:21:09 10° NNE 07:22:45 12° NE 07:24:18 10° ENE daylight
20 Nov - 09:05:31 10° WNW 09:09:33 58° SW 09:13:38 10° SE daylight
20 Nov - 18:15:31 10° SSE 18:17:12 11° SE 18:18:55 10° SE visible
20 Nov - 19:57:57 10° SW 20:04:56 56° SE 20:12:04 10° ENE visible
20 Nov - 21:46:02 10° WSW 21:52:27 33° NW 21:58:42 10° NNE visible
21 Nov - 06:58:57 10° N 07:00:53 13° NE 07:02:45 10° ENE daylight
21 Nov - 08:43:39 10° WNW 08:47:42 55° SW 08:51:44 10° SE daylight
21 Nov - 17:53:26 10° SSE 17:55:09 11° SE 17:56:55 10° SE daylight
21 Nov - 19:35:54 10° SW 19:42:48 57° SE 19:49:59 10° ENE visible
21 Nov - 21:23:59 10° W 21:30:20 32° NW 21:36:37 10° NNE visible
22 Nov - 06:36:45 10° N 06:39:00 14° NE 06:41:09 10° ENE daylight
22 Nov - 08:21:45 10° WNW 08:25:50 52° SW 08:29:50 10° SE daylight
22 Nov - 17:31:24 10° SSE 17:33:07 11° SE 17:34:51 10° SE daylight
22 Nov - 19:13:52 10° SW 19:20:41 58° SE 19:27:52 10° ENE visible
22 Nov - 21:01:58 10° W 21:08:13 31° NW 21:14:30 10° NNE visible
23 Nov - 06:14:33 10° N 06:17:07 15° NE 06:19:33 10° ENE daylight
23 Nov - 07:59:50 10° WNW 08:03:59 50° SW 08:07:57 10° SE daylight
23 Nov - 17:09:25 10° SSE 17:11:05 11° SE 17:12:46 10° SE daylight
23 Nov - 18:51:52 10° SW 18:58:33 60° SE 19:05:45 10° ENE visible
23 Nov - 20:39:58 10° W 20:46:06 30° NW 20:52:22 10° NNE visible
24 Nov - 05:52:21 10° N 05:55:14 16° NE 05:57:55 10° ENE daylight
24 Nov - 07:37:54 10° WNW 07:42:07 48° SW 07:46:05 10° SSE daylight
24 Nov - 16:47:28 10° SSE 16:49:02 11° SE 16:50:38 10° SE daylight
24 Nov - 18:29:52 10° SW 18:36:27 61° SE 18:43:37 10° ENE visible
24 Nov - 20:17:58 10° W 20:23:59 29° NW 20:30:11 10° NNE visible
25 Nov - 05:30:10 10° N 05:33:20 17° NE 05:36:17 10° ENE daylight
25 Nov - 07:15:57 10° WNW 07:20:15 46° SW 07:24:14 10° SSE daylight
25 Nov - 16:25:34 10° SSE 16:27:00 11° SE 16:28:29 10° SE daylight
25 Nov - 18:07:53 10° SW 18:14:20 62° SE 18:21:28 10° ENE visible
25 Nov - 19:56:01 10° W 20:01:53 29° NW 20:08:01 10° NNE visible
26 Nov - 05:07:58 10° N 05:11:25 19° NE 05:14:37 10° E visible
26 Nov - 06:53:58 10° WNW 06:58:22 44° SW 07:02:22 10° SSE daylight
26 Nov - 16:03:43 10° SSE 16:04:59 11° SE 16:06:17 10° SE daylight
26 Nov - 17:45:56 10° SW 17:52:14 63° SE 17:59:18 10° ENE daylight
26 Nov - 19:34:05 10° W 19:39:47 28° NW 19:45:48 10° NNE visible
27 Nov - 04:45:44 10° N 04:49:31 20° NE 04:52:56 10° E visible
27 Nov - 06:31:58 10° WNW 06:36:28 43° SW 06:40:31 10° SSE daylight
27 Nov - 15:41:55 10° SSE 15:42:58 10° SE 15:44:03 10° SE daylight
27 Nov - 17:23:59 10° SW 17:30:08 65° SE 17:37:07 10° ENE daylight
27 Nov - 19:12:10 10° W 19:17:41 26° NW 19:23:35 10° NNE visible
28 Nov - 04:23:31 10° NNW 04:27:35 22° NE 04:31:15 10° E visible
28 Nov - 06:09:57 10° WNW 06:14:34 42° SW 06:18:41 10° SSE daylight
28 Nov - 15:20:11 10° SSE 15:20:58 10° SE 15:21:44 10° SE daylight
28 Nov - 17:02:04 10° SW 17:08:03 66° SE 17:14:56 10° ENE daylight
28 Nov - 18:50:16 10° W 18:55:36 25° NW 19:01:20 10° NNE visible
